Location: Baili�vre
(50.0696°N, 4.2409°E)
Time: 16:29:44
(UTC+00:00)

Cosmos 468 Rocket - Pass Details

Date: 08 August 2020
Orbit: 744 x 780 km, 74.0° (Epoch: 19 September)

Event Time Altitude Azimuth Distance (km) Brightness Sun altitude
Rises 21:35:46 0° 335° (NNW) 3,277 8.9 -17.9°
Reaches altitude 10° 21:38:10 10° 335° (NNW) 2,344 7.8 -18.1°
Maximum altitude 21:43:30 84° 248° (WSW) 788 4.0 -18.6°
Enters shadow 21:45:49 35° 163° (SSE) 1,241 4.5 -18.8°
